Content
SEND FEEDBACK

Daily
Averages
Monthly
Summary
United States of America

DEWEYVILLE, TEXAS


Home > North America > United States > Texas
Elevation: 30 feet     Latitude: 30 18N     Longitude: 093 45W

WEATHER
 
SELECT A DAY
Number of Records: 117,340;   Date Range: 8/25/05 - 11/25/14
 
SHARE

PRINT THIS DATA

[ ← Previous Day ]
WEATHER ALMANAC - MARCH 23, 2013
[ Next Day → ]
[ °C ]   °F
Weather ElementAverageHighLow
Temperature69.2 °F76.5 °F (1:35 pm) (12:15 pm)
Dewpoint66.8 °F69.4 °F (6:55 pm) (7:00 pm)
Humidity92.3 %98 % (2:55 am)75 % (1:55 pm)
Barometer29.27 in29.78 in (12:35 am) (7:00 pm)
Wind Speed1.7 mph9.2 mph (4:15 am)
Weather ElementAverage
Visibility5.4 mi
Wind DirectionENE (52.8 °)

Weather ElementTotal
Precipitation---
Heating Degree Days26.8 (Base 65)
Averaged from 71 records on March 23, 2013
WEATHER CONDITIONS BREAKOUT
WIND DIRECTION BREAKOUT
WEATHER BY HOUR - MARCH 23, 2013
[ °C ]   °F
Local TimeTemperatureDewpointHumidityBarometerVisibilityWind DirectionWind SpeedGust SpeedPrecipitationEventsConditions
12:35 AM69.1 °F67.8 °F96 %29.78 in5.0 miSouth (170°)4.6 mphOvercast
12:55 AM69.1 °F68.0 °F96 %29.78 in3.0 miSouth (170°)4.6 mphOvercast
1:15 AM69.1 °F68.0 °F96 %29.78 in0.8 miSSE (160°)4.6 mphOvercast
1:35 AM68.9 °F68.0 °F97 %29.78 in1.0 miSSE (160°)6.9 mphOvercast
1:55 AM68.9 °F68.0 °F97 %29.78 in1.8 miCalmOvercast
2:15 AM68.4 °F67.5 °F97 %29.78 in1.2 miCalmOvercast
2:35 AM68.2 °F67.3 °F97 %29.77 in1.8 miCalmOvercast
2:55 AM68.0 °F67.3 °F98 %29.75 in0.5 miCalmFogFog
3:15 AM68.0 °F67.3 °F98 %29.74 in0.8 miCalmOvercast
3:35 AM68.0 °F67.3 °F98 %29.73 in1.0 miCalmOvercast
3:55 AM68.0 °F67.1 °F97 %29.72 in3.0 miCalmOvercast
4:15 AM68.0 °F67.1 °F97 %29.70 in5.0 miSE (140°)9.2 mphOvercast
4:35 AM68.0 °F67.1 °F97 %29.69 in3.0 miESE (120°)6.9 mphOvercast
4:55 AM67.6 °F66.9 °F98 %29.69 in1.8 miESE (110°)8.1 mphOvercast
5:15 AM67.6 °F67.1 °F98 %29.70 in4.0 miCalmOvercast
5:35 AM67.8 °F66.9 °F97 %29.69 in5.0 miCalmOvercast
5:55 AM67.6 °F66.7 °F97 %29.69 in5.0 miCalmOvercast
6:15 AM68.0 °F66.7 °F96 %29.71 in5.0 miCalmOvercast
6:35 AM68.0 °F66.9 °F96 %29.73 in5.0 miCalmOvercast
6:55 AM68.0 °F66.7 °F96 %29.74 in5.0 miCalmOvercast
7:15 AM67.6 °F66.6 °F96 %29.74 in5.0 miCalmOvercast
7:35 AM68.0 °F66.9 °F96 %29.75 in4.0 miCalmOvercast
7:55 AM68.2 °F67.1 °F96 %29.75 in4.0 miCalmOvercast
8:15 AM68.9 °F67.6 °F96 %29.75 in4.0 miCalmOvercast
8:35 AM68.9 °F67.6 °F96 %29.76 in4.0 miCalmOvercast
8:55 AM69.3 °F68.0 °F96 %29.77 in5.0 miCalmOvercast
9:15 AM69.8 °F68.0 °F94 %29.77 in5.0 miCalmOvercast
9:35 AM70.0 °F68.2 °F94 %29.77 in5.0 miCalmOvercast
9:55 AM70.2 °F68.2 °F93 %29.77 in7.0 miCalmOvercast
10:15 AM70.2 °F68.4 °F94 %29.76 in5.0 miEast (100°)6.9 mphOvercast
10:35 AM71.4 °F68.5 °F91 %29.75 in10.0 miEast (100°)6.9 mphOvercast
10:55 AM71.8 °F68.2 °F88 %29.75 in10.0 miEast (80°)5.8 mphOvercast
11:15 AM72.3 °F68.4 °F87 %29.74 in10.0 miESE (110°)6.9 mphOvercast
11:35 AM72.5 °F68.2 °F86 %29.73 in10.0 miNorthOvercast
11:55 AM72.1 °F68.2 °F87 %29.73 in10.0 miCalmOvercast
12:15 PM0.0 °F0.0 °F10.0 miNorthOvercast
12:35 PM73.6 °F68.5 °F84 %29.71 in10.0 miNorthOvercast
12:55 PM73.4 °F68.4 °F84 %29.70 in10.0 miCalmOvercast
1:15 PM74.5 °F68.2 °F81 %29.69 in10.0 miNorthOvercast
1:35 PM76.5 °F68.4 °F76 %29.67 in10.0 miCalmOvercast
1:55 PM76.3 °F68.0 °F75 %29.65 in10.0 miNorthOvercast
2:15 PM74.5 °F68.0 °F80 %29.65 in10.0 miNE (40°)5.8 mphOvercast
2:35 PM73.6 °F67.8 °F82 %29.65 in7.0 miEast (80°)3.5 mphOvercast
2:55 PM73.6 °F68.0 °F83 %29.64 in7.0 miNE (50°)3.5 mphOvercast
3:15 PM73.2 °F68.2 °F84 %29.63 in5.0 miCalmDrizzle
3:35 PM72.1 °F68.5 °F88 %29.62 in5.0 miCalmDrizzle
3:55 PM72.0 °F68.5 °F89 %29.62 in5.0 miCalmRainLight Rain
4:15 PM72.1 °F68.5 °F88 %29.61 in5.0 miCalmRainRain
4:35 PM71.8 °F68.4 °F89 %29.61 in7.0 miCalmOvercast
4:55 PM72.1 °F68.7 °F89 %29.60 in7.0 miCalmOvercast
5:15 PM72.1 °F68.9 °F89 %29.60 in7.0 miCalmOvercast
5:35 PM72.5 °F68.7 °F88 %29.60 in10.0 miCalmOvercast
5:55 PM72.5 °F68.9 °F88 %29.59 in7.0 miCalmOvercast
6:15 PM72.3 °F68.9 °F89 %29.59 in7.0 miCalmOvercast
6:35 PM71.8 °F69.3 °F92 %29.60 in5.0 miCalmOvercast
6:55 PM71.6 °F69.4 °F93 %29.60 in4.0 miCalmOvercast
7:15 PM71.1 °F69.1 °F93 %29.60 in5.0 miCalmOvercast
7:35 PM70.9 °F69.1 °F94 %29.60 in7.0 miWNW (290°)3.5 mphOvercast
7:55 PM70.7 °F68.9 °F94 %29.62 in5.0 miWNW (300°)3.5 mphOvercast
8:15 PM70.7 °F68.9 °F94 %29.62 in5.0 miCalmOvercast
8:35 PM70.3 °F68.9 °F95 %29.63 in5.0 miNW (320°)5.8 mphOvercast
8:55 PM69.8 °F68.0 °F94 %29.64 in7.0 miWNW (300°)3.5 mphMostly Cloudy
9:15 PM69.3 °F67.6 °F95 %29.65 in5.0 miCalmMostly Cloudy
9:35 PM69.1 °F67.6 °F95 %29.66 in5.0 miWNW (300°)3.5 mphMostly Cloudy
9:55 PM68.9 °F67.5 °F95 %29.66 in5.0 miNW (310°)3.5 mphMostly Cloudy
10:15 PM68.9 °F67.5 °F95 %29.66 in5.0 miNNW (340°)3.5 mphMostly Cloudy
10:35 PM69.1 °F67.3 °F94 %29.67 in5.0 miCalmOvercast
10:55 PM68.2 °F66.7 °F95 %29.67 in4.0 miCalmScattered Clouds
11:15 PM66.4 °F65.5 °F97 %29.66 in0.5 miCalmFogFog
11:35 PM65.5 °F64.6 °F97 %29.67 in0.2 miCalmFogFog
11:55 PM65.3 °F64.4 °F97 %29.67 in2.0 miCalmOvercast
Hourly data recorded from KORG, located miles away from Deweyville, Texas







STORIES FROM OUR PARTNERS